Weather reports worldwide

Advertisment
Exeter Airport No. 2, United Kingdom (3844): temperature & dewpoint: 16.01.2019 03:00:00 - 22.01.2019 03:00:00 (GMT)Exeter Airport No. 2, United Kingdom (3844): wind speed & gusts: 16.01.2019 03:00:00 - 22.01.2019 03:00:00 (GMT)Exeter Airport No. 2, United Kingdom (3844): wind direction: 16.01.2019 03:00:00 - 22.01.2019 03:00:00 (GMT)Exeter Airport No. 2, United Kingdom (3844): reduced air pressure: 16.01.2019 03:00:00 - 22.01.2019 03:00:00 (GMT)Exeter Airport No. 2, United Kingdom (3844): visibility: 16.01.2019 03:00:00 - 22.01.2019 03:00:00 (GMT)Exeter Airport No. 2, United Kingdom (3844): sunshine duration: 16.01.2019 03:00:00 - 22.01.2019 03:00:00 (GMT)Exeter Airport No. 2, United Kingdom (3844): precipitation: 16.01.2019 03:00:00 - 22.01.2019 03:00:00 (GMT)
Date & Time tt [°C] td [°C] ff [km/h] ff [kn] fx [km/h] fx [kn] dd ppp [hPa] vv [km] sd [min] rr [mm]
22.01.2019 03:00:00 - - - - - - - - - - 0,0
22.01.2019 02:00:00 3,2 1,9 8 4 - - NNW 1007,9 16 0 0,0
22.01.2019 01:00:00 3,5 2,9 4 2 - - W 1008,4 22 0 0,0
22.01.2019 00:00:00 4,5 3,6 9 5 50 27 W 1009,1 28 - 1,8
21.01.2019 23:00:00 7,0 5,6 22 12 - - SW 1008,7 5 0 1,0
21.01.2019 22:00:00 7,4 5,6 16 9 - - SSW 1009,7 15 0 0,0
21.01.2019 21:00:00 7,0 5,0 18 10 - - S 1011,4 22 0 0,0
21.01.2019 20:00:00 6,7 4,7 16 9 - - SSW 1013,5 2,0 0 0,0
21.01.2019 19:00:00 6,4 4,3 13 7 - - S 1015,1 10 0 0,0
21.01.2019 18:00:00 6,5 4,8 13 7 - - S 1016,3 6 0 0,2
21.01.2019 17:00:00 6,4 4,5 11 6 - - SSW 1017,8 1,8 0 0,0
21.01.2019 16:00:00 7,0 4,1 13 7 - - S 1018,8 2,2 0 0,0
21.01.2019 15:00:00 7,3 3,8 13 7 - - S 1019,9 2,8 0 0,0
21.01.2019 14:00:00 7,0 3,9 15 8 - - S 1021,0 6 18 0,0
21.01.2019 13:00:00 6,8 3,5 15 8 - - S 1022,0 7 18 0,0
21.01.2019 12:00:00 4,1 4,1 5 3 - - W 1023,5 2,1 18 0,0
21.01.2019 11:00:00 1,9 1,9 2 1 - - WNW 1024,6 0,4 0 0,0
21.01.2019 10:00:00 1,1 1,1 4 2 - - ENE 1025,0 0,2 0 0,0
21.01.2019 09:00:00 0,3 0,3 2 1 - - NNE 1025,3 0,1 0 0,0
21.01.2019 08:00:00 0,9 0,8 4 2 - - ENE 1025,0 0,1 0 0,0
21.01.2019 07:00:00 0,8 0,7 2 1 - - E 1025,2 - 0 0,0
21.01.2019 06:00:00 1,3 1,0 5 3 - - WNW 1024,8 0,1 0 0,0
21.01.2019 05:00:00 2,9 2,5 2 1 - - NNE 1024,9 2,8 0 0,0
21.01.2019 04:00:00 3,7 3,5 2 1 - - ESE 1025,1 3,8 0 0,0
21.01.2019 03:00:00 3,7 3,4 4 2 - - E 1025,1 2,8 0 0,0
21.01.2019 02:00:00 3,8 3,6 0 0 - - N 1025,4 4,3 0 0,0
21.01.2019 01:00:00 3,2 2,9 4 2 - - E 1025,2 3,8 0 0,0
21.01.2019 00:00:00 2,8 2,5 4 2 - - E 1025,1 3,9 - 0,0
20.01.2019 23:00:00 4,5 3,8 4 2 - - WNW 1024,7 7 0 0,0
20.01.2019 22:00:00 5,1 3,8 4 2 - - N 1024,3 8 0 0,0
20.01.2019 21:00:00 5,0 3,7 0 0 - - N 1023,8 8 0 0,0
20.01.2019 20:00:00 5,4 3,8 2 1 - - NNE 1023,4 8 0 0,0
20.01.2019 19:00:00 5,7 4,0 8 4 - - NNW 1022,8 10 0 0,0
20.01.2019 18:00:00 5,8 4,1 8 4 - - NNE 1021,9 10 0 0,0
20.01.2019 17:00:00 6,1 4,2 8 4 - - NNE 1021,1 12 0 0,0
20.01.2019 16:00:00 5,9 4,2 5 3 - - NNE 1020,1 12 6 0,0
20.01.2019 15:00:00 6,9 4,7 5 3 - - NNW 1019,6 15 0 0,0
20.01.2019 14:00:00 6,7 4,6 5 3 - - NNE 1019,1 13 0 0,0
20.01.2019 13:00:00 6,5 4,2 8 4 - - N 1018,8 14 6 0,0
20.01.2019 12:00:00 6,0 4,1 8 4 - - NNE 1018,4 11 0 0,0
20.01.2019 11:00:00 5,6 4,2 5 3 - - NNE 1018,1 10 0 0,0
20.01.2019 10:00:00 5,2 4,2 4 2 - - ENE 1017,1 9 0 0,0
20.01.2019 09:00:00 4,9 4,0 4 2 - - NE 1016,1 6 0 0,0
20.01.2019 08:00:00 5,0 3,9 5 3 - - NNE 1015,2 7 0 0,0
20.01.2019 07:00:00 5,3 4,9 5 3 - - N 1014,2 3,9 0 0,0
20.01.2019 06:00:00 4,4 3,9 8 4 - - N 1013,3 2,1 0 0,0
20.01.2019 05:00:00 5,4 5,0 4 2 - - ENE 1012,7 4,3 0 0,0
20.01.2019 04:00:00 5,5 5,3 5 3 - - NW 1012,4 5 0 0,0
20.01.2019 03:00:00 5,5 5,1 2 1 - - NNE 1012,0 5 0 0,0
20.01.2019 02:00:00 5,6 5,2 2 1 - - NNE 1011,3 4,7 0 0,0
20.01.2019 01:00:00 5,6 5,2 4 2 - - N 1010,7 2,9 0 0,0
20.01.2019 00:00:00 5,7 5,5 5 3 - - N 1010,3 10 - 0,0
19.01.2019 23:00:00 5,6 5,3 4 2 - - NE 1009,7 4,1 0 0,0
19.01.2019 22:00:00 6,0 5,7 5 3 - - NNW 1009,1 8 0 0,2
19.01.2019 21:00:00 5,6 5,3 2 1 - - NNE 1008,3 8 0 0,0
19.01.2019 20:00:00 5,7 5,5 4 2 - - ENE 1007,7 7 0 0,2
19.01.2019 19:00:00 5,7 5,5 4 2 - - NE 1007,2 4,3 0 0,2
19.01.2019 18:00:00 5,6 5,1 4 2 - - NNE 1006,7 12 0 0,0
19.01.2019 17:00:00 7,0 5,6 5 3 - - N 1006,0 21 6 0,0
19.01.2019 16:00:00 7,5 5,5 5 3 - - ENE 1005,6 29 18 0,0
19.01.2019 15:00:00 7,7 5,8 2 1 - - NNE 1005,3 30 0 0,0
19.01.2019 14:00:00 8,6 5,7 5 3 - - N 1005,2 30 30 0,0
19.01.2019 13:00:00 9,8 6,7 5 3 - - NW 1005,5 0,8 48 0,0
19.01.2019 12:00:00 8,6 6,8 4 2 - - W 1005,9 2,3 54 0,0
19.01.2019 11:00:00 6,5 6,4 4 2 - - ENE 1006,2 8 12 0,0
19.01.2019 10:00:00 6,0 6,0 2 1 - - N 1006,0 11 0 0,0
19.01.2019 09:00:00 3,8 3,7 2 1 - - W 1005,8 9 0 0,0
19.01.2019 08:00:00 2,6 2,2 0 0 - - N 1005,4 0,4 0 0,0
19.01.2019 07:00:00 4,7 4,2 4 2 - - E 1005,2 9 0 0,0
19.01.2019 06:00:00 5,3 4,7 2 1 - - SE 1005,2 10 0 0,2
19.01.2019 05:00:00 5,9 5,5 5 3 - - SSE 1005,4 19 0 0,0
19.01.2019 04:00:00 6,6 6,1 5 3 - - S 1005,9 6 0 1,2
19.01.2019 03:00:00 6,7 6,2 8 4 - - S 1006,3 9 0 0,4
19.01.2019 02:00:00 5,4 5,0 4 2 - - SSE 1006,6 3,3 0 0,4
19.01.2019 01:00:00 5,8 5,4 5 3 - - S 1006,9 12 0 0,0
19.01.2019 00:00:00 6,3 5,8 5 3 - - SSW 1007,4 9 - 0,0
18.01.2019 23:00:00 6,7 5,8 5 3 - - S 1007,5 10 0 0,0
18.01.2019 22:00:00 7,9 7,1 13 7 - - S 1007,7 16 0 1,6
18.01.2019 21:00:00 7,9 7,1 18 10 - - S 1007,6 2,6 0 5,0
18.01.2019 20:00:00 7,9 6,9 22 12 - - S 1008,1 6 0 0,4
18.01.2019 19:00:00 7,8 6,7 28 15 - - SSE 1008,2 8 0 0,0
18.01.2019 18:00:00 7,4 6,5 24 13 - - SSE 1008,6 11 0 0,4
18.01.2019 17:00:00 7,3 6,2 22 12 - - SSE 1009,0 5 0 1,6
18.01.2019 16:00:00 7,0 5,9 24 13 - - SSE 1009,6 4,3 0 1,8
18.01.2019 15:00:00 6,6 5,3 26 14 - - SSE 1010,2 6 0 0,2
18.01.2019 14:00:00 6,4 4,8 26 14 - - SSE 1010,8 5 0 0,2
18.01.2019 13:00:00 7,3 3,3 28 15 48 26 SSE 1011,3 22 0 0,0
18.01.2019 12:00:00 7,2 2,5 28 15 - - SSE 1012,3 21 0 0,0
18.01.2019 11:00:00 7,0 2,7 28 15 - - SSE 1013,0 24 0 0,0
18.01.2019 10:00:00 6,3 2,7 24 13 - - S 1013,3 16 0 0,4
18.01.2019 09:00:00 5,9 3,5 22 12 - - S 1013,7 5 0 0,6
18.01.2019 08:00:00 6,9 1,8 21 11 - - SSE 1013,9 22 0 0,0
18.01.2019 07:00:00 6,6 1,5 18 10 - - S 1014,3 25 0 0,0
18.01.2019 06:00:00 5,5 1,2 15 8 - - S 1014,9 24 0 0,0
18.01.2019 05:00:00 -0,6 -1,2 2 1 - - W 1015,6 16 0 0,0
18.01.2019 04:00:00 -1,3 -1,8 2 1 - - ENE 1016,8 12 0 0,0
18.01.2019 03:00:00 -1,6 -2,2 4 2 - - ESE 1017,4 11 0 0,0
18.01.2019 02:00:00 -1,1 -1,7 2 1 - - N 1018,2 14 0 0,0
18.01.2019 01:00:00 -1,2 -1,9 4 2 - - ENE 1018,7 11 0 0,0
18.01.2019 00:00:00 -0,8 -1,4 4 2 - - ENE 1019,1 13 - 0,0
17.01.2019 23:00:00 -1,3 -2,2 2 1 - - WNW 1019,7 11 0 0,0
17.01.2019 22:00:00 -0,7 -1,5 2 1 - - SSE 1019,3 16 0 0,0
17.01.2019 21:00:00 -0,5 -1,5 2 1 - - SE 1019,5 15 0 0,0
17.01.2019 20:00:00 -0,1 -1,6 4 2 - - W 1019,5 16 0 0,0
17.01.2019 19:00:00 -0,3 -3,2 4 2 - - NW 1019,1 17 0 0,0
17.01.2019 18:00:00 0,6 -3,1 5 3 - - ESE 1018,8 18 0 0,0
17.01.2019 17:00:00 2,8 -2,8 0 0 - - N 1018,3 24 0 0,0
17.01.2019 16:00:00 4,8 -2,8 8 4 - - NNW 1017,7 30 12 0,0
17.01.2019 15:00:00 6,1 -2,8 8 4 - - NNW 1017,1 40 60 0,0
17.01.2019 14:00:00 6,4 -2,6 13 7 - - NNW 1016,7 40 60 0,0
17.01.2019 13:00:00 6,5 -2,1 15 8 - - NNW 1016,7 40 60 0,0
17.01.2019 12:00:00 6,2 -1,8 13 7 - - N 1016,5 40 60 0,0
17.01.2019 11:00:00 5,7 -2,4 15 8 - - N 1015,8 45 60 0,0
17.01.2019 10:00:00 4,9 0,7 11 6 - - NNW 1014,6 - 54 0,0
17.01.2019 09:00:00 4,2 0,7 15 8 - - NNW 1013,3 - 0 0,0
17.01.2019 08:00:00 2,5 1,5 13 7 - - WNW 1011,6 - 0 0,0
17.01.2019 07:00:00 2,3 1,2 9 5 - - NW 1010,3 - 0 0,0
17.01.2019 06:00:00 2,4 1,2 8 4 - - NNW 1009,5 - 0 0,0
17.01.2019 05:00:00 2,2 0,9 8 4 - - N 1008,8 - 0 0,0
17.01.2019 04:00:00 3,9 2,0 13 7 - - WNW 1008,0 - 0 0,0
17.01.2019 03:00:00 4,0 2,4 13 7 - - NW 1007,2 - 0 0,0
17.01.2019 02:00:00 4,8 3,4 13 7 - - NW 1006,6 - 0 0,2
17.01.2019 01:00:00 5,0 3,8 16 9 - - NW 1005,7 - 0 1,4
17.01.2019 00:00:00 5,4 4,1 13 7 - - WNW 1004,5 - - 0,4
16.01.2019 23:00:00 5,1 3,9 8 4 - - WSW 1003,9 - 0 0,6
16.01.2019 22:00:00 5,2 3,5 15 8 - - SW 1003,8 - 0 0,2
16.01.2019 21:00:00 5,4 3,2 15 8 - - SW 1004,0 - 0 0,0
16.01.2019 20:00:00 5,1 2,3 16 9 - - SW 1004,3 - 0 0,0
16.01.2019 19:00:00 5,0 2,6 16 9 - - WSW 1004,4 - 0 0,0
16.01.2019 18:00:00 5,3 3,7 13 7 - - WSW 1004,7 - 0 0,0
16.01.2019 17:00:00 6,5 4,3 13 7 - - W 1004,8 - 0 0,0
16.01.2019 16:00:00 7,4 5,0 13 7 - - W 1004,6 - 0 0,0
16.01.2019 15:00:00 7,0 5,1 11 6 - - W 1004,6 - 0 0,0
16.01.2019 14:00:00 7,0 5,1 15 8 - - NW 1004,8 - 0 0,2
16.01.2019 13:00:00 7,1 5,9 18 10 - - NW 1004,7 - 0 1,0
16.01.2019 12:00:00 10,3 7,5 16 9 - - SW 1004,1 - 36 0,0
16.01.2019 11:00:00 9,4 7,9 18 10 - - SW 1004,9 - 0 0,0
16.01.2019 10:00:00 9,4 7,3 18 10 - - SW 1005,8 - 0 0,0
16.01.2019 09:00:00 9,2 8,5 11 6 - - SW 1006,3 - 0 0,6
16.01.2019 08:00:00 9,8 7,9 22 12 - - SSW 1006,4 - 0 0,0
16.01.2019 07:00:00 8,9 7,4 13 7 - - SSW 1007,0 - 0 0,0
16.01.2019 06:00:00 8,8 7,7 18 10 - - SSW 1007,7 - 0 0,0
16.01.2019 05:00:00 9,1 7,8 15 8 - - SSW 1008,9 - 0 0,0
16.01.2019 04:00:00 8,7 7,9 15 8 - - SSW 1009,8 - 0 0,0
16.01.2019 03:00:00 8,8 7,5 22 12 - - SW 1011,0 - 0 0,0

tt = temperature
td = dewpoint
ff = wind speed
fx = gusts
dd = wind direction
ppp = reduced air pressure
vv = visibility
sd = sunshine duration
rr = precipitation

Next stations